Time,TemperatureF,DewpointF,PressureIn,WindDirection,WindDirectionDegrees,WindSpeedMPH,WindSpeedGustMPH,Humidity,HourlyPrecipIn,Conditions,Clouds,dailyrainin,SoftwareType,DateUTC
2013-03-29 00:01:00,32.0,31.2,30.07,North,360,0.0,5.0,97,0.00,,,-99.99,Weather View 32 v60,2013-03-29 04:01:00,
2013-03-29 00:06:00,32.0,31.5,30.07,North,360,0.0,5.0,98,0.00,,,-99.99,Weather View 32 v60,2013-03-29 04:06:00,
2013-03-29 00:41:00,32.0,31.5,30.08,WSW,247,5.0,6.0,98,0.00,,,-99.99,Weather View 32 v60,2013-03-29 04:41:00,
2013-03-29 00:56:00,31.0,30.2,30.08,SW,225,5.0,8.0,97,0.00,,,-99.99,Weather View 32 v60,2013-03-29 04:56:00,
2013-03-29 01:06:00,32.0,31.8,30.08,SW,225,4.0,8.0,99,0.00,,,-99.99,Weather View 32 v60,2013-03-29 05:06:00,
2013-03-29 01:21:00,32.0,32.0,30.07,SW,225,4.0,8.0,100,0.00,,,-99.99,Weather View 32 v60,2013-03-29 05:21:00,
2013-03-29 01:36:00,32.0,32.0,30.08,SW,225,4.0,8.0,100,0.00,,,-99.99,Weather View 32 v60,2013-03-29 05:36:00,
2013-03-29 01:46:00,32.0,32.0,30.08,SW,225,5.0,8.0,100,0.00,,,-99.99,Weather View 32 v60,2013-03-29 05:46:00,
2013-03-29 01:56:00,31.0,31.0,30.08,SW,225,4.0,8.0,100,0.00,,,-99.99,Weather View 32 v60,2013-03-29 05:56:00,
2013-03-29 02:11:00,32.0,32.0,30.08,SW,225,5.0,7.0,100,0.00,,,-99.99,Weather View 32 v60,2013-03-29 06:11:00,
2013-03-29 02:21:00,31.0,31.0,30.08,WSW,247,6.0,7.0,100,0.00,,,-99.99,Weather View 32 v60,2013-03-29 06:21:00,
2013-03-29 02:36:00,30.0,29.8,30.08,SW,225,5.0,10.0,99,0.00,,,-99.99,Weather View 32 v60,2013-03-29 06:36:00,
2013-03-29 02:41:00,30.0,29.8,30.08,SW,225,7.0,10.0,99,0.00,,,-99.99,Weather View 32 v60,2013-03-29 06:41:00,
2013-03-29 02:46:00,30.0,30.0,30.08,SW,225,4.0,10.0,100,0.00,,,-99.99,Weather View 32 v60,2013-03-29 06:46:00,
2013-03-29 02:51:00,30.0,30.0,30.08,SW,225,7.0,10.0,100,0.00,,,-99.99,Weather View 32 v60,2013-03-29 06:51:00,
2013-03-29 03:01:00,30.0,30.0,30.08,SW,225,6.0,10.0,100,0.00,,,-99.99,Weather View 32 v60,2013-03-29 07:01:00,
2013-03-29 03:21:00,30.0,30.0,30.08,SSW,202,7.0,10.0,100,0.00,,,-99.99,Weather View 32 v60,2013-03-29 07:21:00,
2013-03-29 03:36:00,30.0,30.0,30.08,SW,225,7.0,9.0,100,0.00,,,-99.99,Weather View 32 v60,2013-03-29 07:36:00,
2013-03-29 03:46:00,30.0,29.8,30.08,SW,225,6.0,9.0,99,0.00,,,-99.99,Weather View 32 v60,2013-03-29 07:46:00,
2013-03-29 03:51:00,31.0,30.5,30.07,SW,225,6.0,9.0,98,0.00,,,-99.99,Weather View 32 v60,2013-03-29 07:51:00,
2013-03-29 04:06:00,31.0,30.2,30.07,SW,225,6.0,11.0,97,0.00,,,-99.99,Weather View 32 v60,2013-03-29 08:06:00,
2013-03-29 04:11:00,31.0,30.2,30.07,SW,225,6.0,11.0,97,0.00,,,-99.99,Weather View 32 v60,2013-03-29 08:11:00,
2013-03-29 04:23:00,31.0,30.2,30.07,SW,225,7.0,11.0,97,0.00,,,-99.99,Weather View 32 v60,2013-03-29 08:23:00,
2013-03-29 04:31:00,31.0,30.2,30.07,SW,225,6.0,11.0,97,0.00,,,-99.99,Weather View 32 v60,2013-03-29 08:31:00,
2013-03-29 04:51:00,31.0,30.2,30.07,SW,225,7.0,11.0,97,0.00,,,-99.99,Weather View 32 v60,2013-03-29 08:51:00,
2013-03-29 05:06:00,32.0,31.5,30.07,SW,225,7.0,9.0,98,0.00,,,-99.99,Weather View 32 v60,2013-03-29 09:06:00,
2013-03-29 05:11:00,31.0,30.5,30.07,SW,225,6.0,9.0,98,0.00,,,-99.99,Weather View 32 v60,2013-03-29 09:11:00,
2013-03-29 05:21:00,31.0,30.5,30.06,SW,225,6.0,9.0,98,0.00,,,-99.99,Weather View 32 v60,2013-03-29 09:21:00,
2013-03-29 05:26:00,31.0,30.8,30.06,SW,225,7.0,9.0,99,0.00,,,-99.99,Weather View 32 v60,2013-03-29 09:26:00,
2013-03-29 05:31:00,31.0,30.8,30.07,SW,225,6.0,10.0,99,0.00,,,-99.99,Weather View 32 v60,2013-03-29 09:31:00,
2013-03-29 05:36:00,32.0,31.8,30.07,SW,225,6.0,10.0,99,0.00,,,-99.99,Weather View 32 v60,2013-03-29 09:36:00,
2013-03-29 05:41:00,32.0,31.8,30.06,SW,225,7.0,10.0,99,0.00,,,-99.99,Weather View 32 v60,2013-03-29 09:41:00,
2013-03-29 05:46:00,32.0,31.8,30.06,SW,225,6.0,10.0,99,0.00,,,-99.99,Weather View 32 v60,2013-03-29 09:46:00,
2013-03-29 05:51:00,31.0,30.8,30.06,SW,225,8.0,10.0,99,0.00,,,-99.99,Weather View 32 v60,2013-03-29 09:51:00,
2013-03-29 05:56:00,31.0,31.0,30.06,SW,225,5.0,10.0,100,0.00,,,-99.99,Weather View 32 v60,2013-03-29 09:56:00,
2013-03-29 06:01:00,31.0,31.0,30.06,SW,225,7.0,10.0,100,0.00,,,-99.99,Weather View 32 v60,2013-03-29 10:01:00,
2013-03-29 06:11:00,31.0,31.0,30.06,SW,225,12.0,12.0,100,0.00,,,-99.99,Weather View 32 v60,2013-03-29 10:11:00,
2013-03-29 06:16:00,31.0,31.0,30.06,SW,225,9.0,12.0,100,0.00,,,-99.99,Weather View 32 v60,2013-03-29 10:16:00,
2013-03-29 06:24:00,32.0,32.0,30.06,SW,225,9.0,12.0,100,0.00,,,-99.99,Weather View 32 v60,2013-03-29 10:24:00,
2013-03-29 06:36:00,31.0,31.0,30.06,SW,225,7.0,14.0,100,0.00,,,-99.99,Weather View 32 v60,2013-03-29 10:36:00,
2013-03-29 06:41:00,31.0,31.0,30.06,SW,225,10.0,16.0,100,0.00,,,-99.99,Weather View 32 v60,2013-03-29 10:41:00,
2013-03-29 06:46:00,31.0,31.0,30.06,SW,225,9.0,16.0,100,0.00,,,-99.99,Weather View 32 v60,2013-03-29 10:46:00,
2013-03-29 07:16:00,30.0,30.0,30.06,SW,225,10.0,16.0,100,0.00,,,-99.99,Weather View 32 v60,2013-03-29 11:16:00,
2013-03-29 07:21:00,30.0,30.0,30.07,SW,225,9.0,16.0,100,0.00,,,-99.99,Weather View 32 v60,2013-03-29 11:21:00,
2013-03-29 07:26:00,30.0,30.0,30.07,SW,225,7.0,16.0,100,0.00,,,-99.99,Weather View 32 v60,2013-03-29 11:26:00,
2013-03-29 07:31:00,30.0,30.0,30.07,SW,225,7.0,16.0,100,0.00,,,-99.99,Weather View 32 v60,2013-03-29 11:31:00,
2013-03-29 07:41:00,30.0,30.0,30.06,SW,225,15.0,17.0,100,0.00,,,-99.99,Weather View 32 v60,2013-03-29 11:41:00,
2013-03-29 07:46:00,30.0,30.0,30.06,SW,225,6.0,17.0,100,0.00,,,-99.99,Weather View 32 v60,2013-03-29 11:46:00,
2013-03-29 07:56:00,29.0,29.0,30.07,SW,225,9.0,17.0,100,0.00,,,-99.99,Weather View 32 v60,2013-03-29 11:56:00,
2013-03-29 08:11:00,30.0,30.0,30.07,SW,225,6.0,17.0,100,0.00,,,-99.99,Weather View 32 v60,2013-03-29 12:11:00,
2013-03-29 08:16:00,29.0,29.0,30.07,SW,225,6.0,17.0,100,0.00,,,-99.99,Weather View 32 v60,2013-03-29 12:16:00,
2013-03-29 08:21:00,29.0,29.0,30.07,SW,225,7.0,17.0,100,0.00,,,-99.99,Weather View 32 v60,2013-03-29 12:21:00,
2013-03-29 08:26:00,29.0,29.0,30.07,SW,225,8.0,17.0,100,0.00,,,-99.99,Weather View 32 v60,2013-03-29 12:26:00,
2013-03-29 08:36:00,29.0,29.0,30.07,SW,225,5.0,17.0,100,0.00,,,-99.99,Weather View 32 v60,2013-03-29 12:36:00,
2013-03-29 08:51:00,29.0,29.0,30.08,SW,225,6.0,14.0,100,0.00,,,-99.99,Weather View 32 v60,2013-03-29 12:51:00,
2013-03-29 09:11:00,29.0,29.0,30.08,SW,225,8.0,14.0,100,0.00,,,-99.99,Weather View 32 v60,2013-03-29 13:11:00,
2013-03-29 09:16:00,30.0,30.0,30.08,SW,225,6.0,14.0,100,0.00,,,-99.99,Weather View 32 v60,2013-03-29 13:16:00,
2013-03-29 09:26:00,30.0,30.0,30.08,SW,225,2.0,13.0,100,0.00,,,-99.99,Weather View 32 v60,2013-03-29 13:26:00,
2013-03-29 09:31:00,30.0,30.0,30.08,South,180,4.0,13.0,100,0.00,,,-99.99,Weather View 32 v60,2013-03-29 13:31:00,
2013-03-29 09:36:00,31.0,31.0,30.08,SW,225,5.0,13.0,100,0.00,,,-99.99,Weather View 32 v60,2013-03-29 13:36:00,
2013-03-29 09:51:00,32.0,32.0,30.08,WSW,247,3.0,13.0,100,0.00,,,-99.99,Weather View 32 v60,2013-03-29 13:51:00,
2013-03-29 09:56:00,32.0,32.0,30.08,SW,225,6.0,13.0,100,0.00,,,-99.99,Weather View 32 v60,2013-03-29 13:56:00,
2013-03-29 10:01:00,31.0,31.0,30.08,SW,225,5.0,13.0,100,0.00,,,-99.99,Weather View 32 v60,2013-03-29 14:01:00,
2013-03-29 10:06:00,32.0,32.0,30.08,SW,225,5.0,12.0,100,0.00,,,-99.99,Weather View 32 v60,2013-03-29 14:06:00,
2013-03-29 10:27:00,33.0,33.0,30.07,SW,225,6.0,10.0,100,0.00,,,-99.99,Weather View 32 v60,2013-03-29 14:27:00,
2013-03-29 10:36:00,33.0,32.5,30.07,WSW,247,4.0,10.0,98,0.00,,,-99.99,Weather View 32 v60,2013-03-29 14:36:00,
2013-03-29 10:46:00,34.0,33.2,30.07,WSW,247,5.0,9.0,97,0.00,,,-99.99,Weather View 32 v60,2013-03-29 14:46:00,
2013-03-29 10:56:00,33.0,32.0,30.07,West,270,5.0,9.0,96,0.00,,,-99.99,Weather View 32 v60,2013-03-29 14:56:00,
2013-03-29 11:01:00,33.0,32.2,30.07,West,270,4.0,9.0,97,0.00,,,-99.99,Weather View 32 v60,2013-03-29 15:01:00,
2013-03-29 11:06:00,34.0,33.0,30.07,SW,225,5.0,9.0,96,0.00,,,-99.99,Weather View 32 v60,2013-03-29 15:06:00,
2013-03-29 11:16:00,34.0,33.0,30.07,SW,225,8.0,10.0,96,0.00,,,-99.99,Weather View 32 v60,2013-03-29 15:16:00,
2013-03-29 11:21:00,34.0,32.7,30.08,SW,225,6.0,10.0,95,0.00,,,-99.99,Weather View 32 v60,2013-03-29 15:21:00,
2013-03-29 11:27:00,35.0,33.7,30.08,SW,225,8.0,10.0,95,0.00,,,-99.99,Weather View 32 v60,2013-03-29 15:27:00,
2013-03-29 11:36:00,35.0,33.4,30.07,SW,225,8.0,10.0,94,0.00,,,-99.99,Weather View 32 v60,2013-03-29 15:36:00,
2013-03-29 11:41:00,35.0,33.4,30.07,WSW,247,4.0,10.0,94,0.00,,,-99.99,Weather View 32 v60,2013-03-29 15:41:00,
2013-03-29 11:46:00,35.0,33.4,30.07,West,270,8.0,11.0,94,0.00,,,-99.99,Weather View 32 v60,2013-03-29 15:46:00,
2013-03-29 11:51:00,35.0,33.4,30.07,WSW,247,9.0,19.0,94,0.00,,,-99.99,Weather View 32 v60,2013-03-29 15:51:00,
2013-03-29 12:16:00,35.0,33.4,30.08,SSW,202,6.0,22.0,94,0.00,,,-99.99,Weather View 32 v60,2013-03-29 16:16:00,
2013-03-29 12:26:00,35.0,33.4,30.07,West,270,8.0,22.0,94,0.00,,,-99.99,Weather View 32 v60,2013-03-29 16:26:00,
2013-03-29 12:31:00,36.0,34.2,30.07,WSW,247,8.0,22.0,93,0.00,,,-99.99,Weather View 32 v60,2013-03-29 16:31:00,
2013-03-29 12:41:00,36.0,34.4,30.07,SW,225,12.0,22.0,94,0.00,,,-99.99,Weather View 32 v60,2013-03-29 16:41:00,
2013-03-29 12:51:00,36.0,34.2,30.07,West,270,8.0,22.0,93,0.00,,,-99.99,Weather View 32 v60,2013-03-29 16:51:00,
2013-03-29 13:06:00,37.0,35.2,30.07,WSW,247,7.0,22.0,93,0.00,,,-99.99,Weather View 32 v60,2013-03-29 17:06:00,
2013-03-29 13:21:00,37.0,35.4,30.05,West,270,9.0,22.0,94,0.00,,,-99.99,Weather View 32 v60,2013-03-29 17:21:00,
2013-03-29 13:26:00,37.0,35.4,30.05,West,270,9.0,22.0,94,0.00,,,-99.99,Weather View 32 v60,2013-03-29 17:26:00,
2013-03-29 13:41:00,36.0,34.4,30.05,West,270,6.0,22.0,94,0.00,,,-99.99,Weather View 32 v60,2013-03-29 17:41:00,
2013-03-29 14:01:00,36.0,34.4,30.05,WNW,292,8.0,18.0,94,0.00,,,-99.99,Weather View 32 v60,2013-03-29 18:01:00,
2013-03-29 14:16:00,37.0,35.4,30.05,SW,225,9.0,18.0,94,0.00,,,-99.99,Weather View 32 v60,2013-03-29 18:16:00,
2013-03-29 14:29:00,37.0,35.4,30.05,West,270,10.0,18.0,94,0.00,,,-99.99,Weather View 32 v60,2013-03-29 18:29:00,
2013-03-29 14:36:00,37.0,35.4,30.05,West,270,8.0,18.0,94,0.00,,,-99.99,Weather View 32 v60,2013-03-29 18:36:00,
2013-03-29 14:41:00,38.0,36.2,30.04,West,270,10.0,18.0,93,0.00,,,-99.99,Weather View 32 v60,2013-03-29 18:41:00,
2013-03-29 14:51:00,37.0,35.4,30.03,WNW,292,11.0,17.0,94,0.00,,,-99.99,Weather View 32 v60,2013-03-29 18:51:00,
2013-03-29 14:56:00,37.0,35.4,30.03,WNW,292,10.0,13.0,94,0.00,,,-99.99,Weather View 32 v60,2013-03-29 18:56:00,
2013-03-29 15:01:00,37.0,35.4,30.03,WNW,292,10.0,13.0,94,0.00,,,-99.99,Weather View 32 v60,2013-03-29 19:01:00,
2013-03-29 15:11:00,37.0,35.4,30.03,WNW,292,10.0,15.0,94,0.00,,,-99.99,Weather View 32 v60,2013-03-29 19:11:00,
2013-03-29 15:16:00,37.0,35.2,30.03,WNW,292,9.0,15.0,93,0.00,,,-99.99,Weather View 32 v60,2013-03-29 19:16:00,
2013-03-29 15:21:00,37.0,35.4,30.03,West,270,8.0,15.0,94,0.00,,,-99.99,Weather View 32 v60,2013-03-29 19:21:00,
2013-03-29 15:26:00,38.0,36.4,30.03,WNW,292,7.0,15.0,94,0.00,,,-99.99,Weather View 32 v60,2013-03-29 19:26:00,
2013-03-29 15:31:00,38.0,36.4,30.02,NW,315,8.0,15.0,94,0.00,,,-99.99,Weather View 32 v60,2013-03-29 19:31:00,
2013-03-29 15:41:00,38.0,36.2,30.01,NW,315,8.0,15.0,93,0.00,,,-99.99,Weather View 32 v60,2013-03-29 19:41:00,
2013-03-29 15:46:00,38.0,36.2,30.01,NW,315,9.0,15.0,93,0.00,,,-99.99,Weather View 32 v60,2013-03-29 19:46:00,
2013-03-29 15:51:00,37.0,35.4,30.01,WNW,292,8.0,15.0,94,0.00,,,-99.99,Weather View 32 v60,2013-03-29 19:51:00,
2013-03-29 16:06:00,38.0,36.2,30.01,WNW,292,8.0,16.0,93,0.00,,,-99.99,Weather View 32 v60,2013-03-29 20:06:00,
2013-03-29 16:11:00,38.0,36.2,30.01,NW,315,6.0,16.0,93,0.00,,,-99.99,Weather View 32 v60,2013-03-29 20:11:00,
2013-03-29 16:16:00,38.0,36.2,30.01,WNW,292,10.0,16.0,93,0.00,,,-99.99,Weather View 32 v60,2013-03-29 20:16:00,
2013-03-29 16:26:00,39.0,36.3,30.01,WNW,292,7.0,18.0,90,0.00,,,-99.99,Weather View 32 v60,2013-03-29 20:26:00,
2013-03-29 16:36:00,39.0,36.3,30.01,WNW,292,9.0,18.0,90,0.00,,,-99.99,Weather View 32 v60,2013-03-29 20:36:00,
2013-03-29 16:46:00,39.0,36.3,30.00,West,270,7.0,18.0,90,0.00,,,-99.99,Weather View 32 v60,2013-03-29 20:46:00,
2013-03-29 16:56:00,40.0,37.0,30.00,North,360,4.0,18.0,89,0.00,,,-99.99,Weather View 32 v60,2013-03-29 20:56:00,
2013-03-29 17:06:00,39.0,36.3,30.00,NW,315,5.0,18.0,90,0.00,,,-99.99,Weather View 32 v60,2013-03-29 21:06:00,
2013-03-29 17:11:00,38.0,35.6,30.00,NW,315,7.0,18.0,91,0.00,,,-99.99,Weather View 32 v60,2013-03-29 21:11:00,
2013-03-29 17:21:00,39.0,36.3,30.00,NW,315,3.0,16.0,90,0.00,,,-99.99,Weather View 32 v60,2013-03-29 21:21:00,
2013-03-29 17:26:00,39.0,36.3,30.00,WNW,292,4.0,16.0,90,0.00,,,-99.99,Weather View 32 v60,2013-03-29 21:26:00,
2013-03-29 17:36:00,39.0,36.6,30.00,WNW,292,8.0,16.0,91,0.00,,,-99.99,Weather View 32 v60,2013-03-29 21:36:00,
2013-03-29 17:46:00,37.0,35.2,30.00,NW,315,8.0,15.0,93,0.00,,,-99.99,Weather View 32 v60,2013-03-29 21:46:00,
2013-03-29 17:56:00,39.0,36.3,30.00,NW,315,8.0,15.0,90,0.00,,,-99.99,Weather View 32 v60,2013-03-29 21:56:00,
2013-03-29 18:06:00,37.0,35.4,30.00,NNW,337,10.0,15.0,94,0.00,,,-99.99,Weather View 32 v60,2013-03-29 22:06:00,
2013-03-29 18:11:00,36.0,34.4,30.00,NW,315,8.0,13.0,94,0.00,,,-99.99,Weather View 32 v60,2013-03-29 22:11:00,
2013-03-29 18:16:00,36.0,34.4,30.00,WNW,292,6.0,13.0,94,0.00,,,-99.99,Weather View 32 v60,2013-03-29 22:16:00,
2013-03-29 18:21:00,37.0,35.2,30.00,NW,315,4.0,14.0,93,0.00,,,-99.99,Weather View 32 v60,2013-03-29 22:21:00,
2013-03-29 18:26:00,37.0,35.4,30.00,NW,315,10.0,14.0,94,0.00,,,-99.99,Weather View 32 v60,2013-03-29 22:26:00,
2013-03-29 18:31:00,37.0,35.4,30.00,NW,315,7.0,14.0,94,0.00,,,-99.99,Weather View 32 v60,2013-03-29 22:31:00,
2013-03-29 18:41:00,37.0,35.2,30.00,NW,315,5.0,14.0,93,0.00,,,-99.99,Weather View 32 v60,2013-03-29 22:41:00,
2013-03-29 18:51:00,38.0,36.2,30.00,NW,315,7.0,14.0,93,0.00,,,-99.99,Weather View 32 v60,2013-03-29 22:51:00,
2013-03-29 19:01:00,37.0,35.4,30.00,NW,315,6.0,14.0,94,0.00,,,-99.99,Weather View 32 v60,2013-03-29 23:01:00,
2013-03-29 19:06:00,36.0,34.4,30.00,NNW,337,8.0,14.0,94,0.00,,,-99.99,Weather View 32 v60,2013-03-29 23:06:00,
2013-03-29 19:11:00,36.0,34.4,30.00,NW,315,8.0,14.0,94,0.00,,,-99.99,Weather View 32 v60,2013-03-29 23:11:00,
2013-03-29 19:26:00,36.0,34.7,30.00,NW,315,7.0,14.0,95,0.00,,,-99.99,Weather View 32 v60,2013-03-29 23:26:00,
2013-03-29 19:41:00,35.0,33.7,30.01,NW,315,5.0,12.0,95,0.00,,,-99.99,Weather View 32 v60,2013-03-29 23:41:00,
2013-03-29 19:56:00,34.0,33.0,30.01,NW,315,8.0,12.0,96,0.00,,,-99.99,Weather View 32 v60,2013-03-29 23:56:00,
2013-03-29 20:01:00,34.0,33.2,30.01,NW,315,6.0,12.0,97,0.00,,,-99.99,Weather View 32 v60,2013-03-30 00:01:00,
2013-03-29 20:11:00,33.0,32.2,30.01,NNW,337,6.0,12.0,97,0.00,,,-99.99,Weather View 32 v60,2013-03-30 00:11:00,
2013-03-29 20:21:00,33.0,32.0,30.01,North,360,5.0,12.0,96,0.00,,,-99.99,Weather View 32 v60,2013-03-30 00:21:00,
2013-03-29 20:26:00,33.0,32.2,30.01,North,360,4.0,12.0,97,0.00,,,-99.99,Weather View 32 v60,2013-03-30 00:26:00,
2013-03-29 20:32:00,33.0,32.2,30.01,NW,315,3.0,12.0,97,0.00,,,-99.99,Weather View 32 v60,2013-03-30 00:32:00,
2013-03-29 20:41:00,33.0,32.2,30.01,NW,315,6.0,12.0,97,0.00,,,-99.99,Weather View 32 v60,2013-03-30 00:41:00,
2013-03-29 20:46:00,33.0,32.5,30.01,NW,315,6.0,12.0,98,0.00,,,-99.99,Weather View 32 v60,2013-03-30 00:46:00,
2013-03-29 20:51:00,33.0,32.7,30.01,NW,315,5.0,12.0,99,0.00,,,-99.99,Weather View 32 v60,2013-03-30 00:51:00,
2013-03-29 21:01:00,33.0,33.0,30.02,NW,315,6.0,12.0,100,0.00,,,-99.99,Weather View 32 v60,2013-03-30 01:01:00,
2013-03-29 21:11:00,33.0,33.0,30.02,NW,315,6.0,12.0,100,0.00,,,-99.99,Weather View 32 v60,2013-03-30 01:11:00,
2013-03-29 21:26:00,33.0,33.0,30.02,NNW,337,4.0,11.0,100,0.00,,,-99.99,Weather View 32 v60,2013-03-30 01:26:00,
2013-03-29 21:31:00,33.0,33.0,30.02,NNW,337,4.0,11.0,100,0.00,,,-99.99,Weather View 32 v60,2013-03-30 01:31:00,
2013-03-29 21:41:00,33.0,33.0,30.02,North,360,4.0,11.0,100,0.00,,,-99.99,Weather View 32 v60,2013-03-30 01:41:00,
2013-03-29 22:06:00,32.0,32.0,30.02,North,360,4.0,9.0,100,0.00,,,-99.99,Weather View 32 v60,2013-03-30 02:06:00,
2013-03-29 22:11:00,33.0,33.0,30.02,North,360,7.0,9.0,100,0.00,,,-99.99,Weather View 32 v60,2013-03-30 02:11:00,
2013-03-29 22:21:00,33.0,33.0,30.02,North,360,7.0,11.0,100,0.00,,,-99.99,Weather View 32 v60,2013-03-30 02:21:00,
2013-03-29 22:33:00,32.0,32.0,30.02,North,360,6.0,11.0,100,0.00,,,-99.99,Weather View 32 v60,2013-03-30 02:33:00,
2013-03-29 22:41:00,32.0,32.0,30.03,NNW,337,4.0,11.0,100,0.00,,,-99.99,Weather View 32 v60,2013-03-30 02:41:00,
2013-03-29 22:46:00,33.0,33.0,30.03,NW,315,5.0,11.0,100,0.00,,,-99.99,Weather View 32 v60,2013-03-30 02:46:00,
2013-03-29 22:56:00,32.0,32.0,30.03,North,360,5.0,11.0,100,0.00,,,-99.99,Weather View 32 v60,2013-03-30 02:56:00,
2013-03-29 23:01:00,32.0,32.0,30.03,North,360,4.0,11.0,100,0.00,,,-99.99,Weather View 32 v60,2013-03-30 03:01:00,
2013-03-29 23:06:00,32.0,32.0,30.03,NW,315,3.0,11.0,100,0.00,,,-99.99,Weather View 32 v60,2013-03-30 03:06:00,
2013-03-29 23:11:00,31.0,31.0,30.03,West,270,5.0,11.0,100,0.00,,,-99.99,Weather View 32 v60,2013-03-30 03:11:00,
2013-03-29 23:16:00,31.0,31.0,30.03,NW,315,3.0,11.0,100,0.00,,,-99.99,Weather View 32 v60,2013-03-30 03:16:00,
2013-03-29 23:26:00,31.0,31.0,30.02,NW,315,3.0,9.0,100,0.00,,,-99.99,Weather View 32 v60,2013-03-30 03:26:00,
2013-03-29 23:31:00,31.0,31.0,30.02,WNW,292,1.0,9.0,100,0.00,,,-99.99,Weather View 32 v60,2013-03-30 03:31:00,
2013-03-29 23:36:00,31.0,31.0,30.02,NW,315,4.0,9.0,100,0.00,,,-99.99,Weather View 32 v60,2013-03-30 03:36:00,
2013-03-29 23:46:00,30.0,30.0,30.02,West,270,3.0,8.0,100,0.00,,,-99.99,Weather View 32 v60,2013-03-30 03:46:00,
2013-03-29 23:51:00,31.0,31.0,30.02,West,270,4.0,8.0,100,0.00,,,-99.99,Weather View 32 v60,2013-03-30 03:51:00,
2013-03-29 23:56:00,30.0,30.0,30.02,West,270,3.0,8.0,100,0.00,,,-99.99,Weather View 32 v60,2013-03-30 03:56:00,